Satellite: NOAA-12
Catalog number: 21263
Epoch time:      10013.80506954
Element set:    0411
Inclination:      098.7698 deg
RA of node:       026.9514 deg
Eccentricity:    0.0011509
Arg of perigee:   254.8232 deg
Mean anomaly:     105.1670 deg
Mean motion:   14.25610661 rev/day
Decay rate:        1.7e-07 rev/day^2
Epoch rev:           97040
Checksum:              272

Satellite: MET-3/5
Catalog number: 21655
Epoch time:      10013.65944564
Element set:    0712
Inclination:      082.5551 deg
RA of node:       057.8180 deg
Eccentricity:    0.0014010
Arg of perigee:   020.7474 deg
Mean anomaly:     339.4155 deg
Mean motion:   13.17020169 rev/day
Decay rate:        5.1e-07 rev/day^2
Epoch rev:           88533
Checksum:              274

Satellite: MET-2/21
Catalog number: 22782
Epoch time:      10014.55274772
Element set:     668
Inclination:      082.5469 deg
RA of node:       014.3280 deg
Eccentricity:    0.0023769
Arg of perigee:   111.8732 deg
Mean anomaly:     248.4973 deg
Mean motion:   13.83640278 rev/day
Decay rate:        2.8e-07 rev/day^2
Epoch rev:           82683
Checksum:              320

Satellite: OKEAN-4
Catalog number: 23317
Epoch time:      10014.73257783
Element set:     127
Inclination:      082.5412 deg
RA of node:       137.0826 deg
Eccentricity:    0.0023070
Arg of perigee:   031.4326 deg
Mean anomaly:     328.8255 deg
Mean motion:   14.82756654 rev/day
Decay rate:       2.80e-06 rev/day^2
Epoch rev:           82371
Checksum:              280

Satellite: NOAA-14
Catalog number: 23455
Epoch time:      10013.78895122
Element set:    0905
Inclination:      098.8917 deg
RA of node:       095.5379 deg
Eccentricity:    0.0008902
Arg of perigee:   318.1154 deg
Mean anomaly:     041.9328 deg
Mean motion:   14.13776178 rev/day
Decay rate:       -4.9e-07 rev/day^2
Epoch rev:           77568
Checksum:              337

Satellite: NOAA-15
Catalog number: 25338
Epoch time:      10013.87104516
Element set:    0233
Inclination:      098.6048 deg
RA of node:       003.6780 deg
Eccentricity:    0.0010975
Arg of perigee:   159.7058 deg
Mean anomaly:     200.4567 deg
Mean motion:   14.24801399 rev/day
Decay rate:       -1.0e-07 rev/day^2
Epoch rev:           60677
Checksum:              292

Satellite: RESURS
Catalog number: 25394
Epoch time:      10014.62947521
Element set:     406
Inclination:      098.3176 deg
RA of node:       040.9819 deg
Eccentricity:    0.0001272
Arg of perigee:   351.4716 deg
Mean anomaly:     008.6434 deg
Mean motion:   14.24192186 rev/day
Decay rate:       -2.2e-07 rev/day^2
Epoch rev:           59849
Checksum:              292

Satellite: FENGYUN1
Catalog number: 25730
Epoch time:      10014.83235348
Element set:     948
Inclination:      098.7742 deg
RA of node:       343.8792 deg
Eccentricity:    0.0024232
Arg of perigee:   337.5069 deg
Mean anomaly:     022.5029 deg
Mean motion:   14.08167545 rev/day
Decay rate:       1.21e-06 rev/day^2
Epoch rev:           55010
Checksum:              285

Satellite: OKEAN-0
Catalog number: 25860
Epoch time:      10014.82411276
Element set:     887
Inclination:      097.8127 deg
RA of node:       352.9077 deg
Eccentricity:    0.0000777
Arg of perigee:   109.2806 deg
Mean anomaly:     250.8488 deg
Mean motion:   14.73607449 rev/day
Decay rate:        4.1e-07 rev/day^2
Epoch rev:           56431
Checksum:              310

Satellite: NOAA-16
Catalog number: 26536
Epoch time:      10013.88144266
Element set:    0710
Inclination:      099.1779 deg
RA of node:       027.6610 deg
Eccentricity:    0.0011096
Arg of perigee:   053.0862 deg
Mean anomaly:     307.1306 deg
Mean motion:   14.12543012 rev/day
Decay rate:        8.2e-07 rev/day^2
Epoch rev:           48004
Checksum:              266

Satellite: NOAA-17
Catalog number: 27453
Epoch time:      10013.85087099
Element set:    0713
Inclination:      098.4567 deg
RA of node:       070.3446 deg
Eccentricity:    0.0011051
Arg of perigee:   225.3831 deg
Mean anomaly:     134.6431 deg
Mean motion:   14.24121267 rev/day
Decay rate:       -7.5e-07 rev/day^2
Epoch rev:           39273
Checksum:              286

Satellite: NOAA-18
Catalog number: 28654
Epoch time:      10013.89337148
Element set:    0196
Inclination:      098.9329 deg
RA of node:       320.7444 deg
Eccentricity:    0.0015008
Arg of perigee:   127.0829 deg
Mean anomaly:     233.1716 deg
Mean motion:   14.11320152 rev/day
Decay rate:       3.37e-06 rev/day^2
Epoch rev:           23967
Checksum:              298

Satellite: NOAA-19
Catalog number: 33591
Epoch time:      10013.84786335
Element set:    0404
Inclination:      098.7722 deg
RA of node:       319.3813 deg
Eccentricity:    0.0014398
Arg of perigee:   010.0180 deg
Mean anomaly:     350.1303 deg
Mean motion:   14.11015527 rev/day
Decay rate:       -4.8e-07 rev/day^2
Epoch rev:           04814
Checksum:              269

/EX
SB KEPS @ AMSAT  $ORB10014.M
Orbital Elements  10014.MISC

HR AMSAT ORBITAL ELEMENTS FOR MANNED AND MISCELLANEOUS SATELLITES
FROM WA5QGD FORT WORTH,TX January 14, 2010
Send Subscribe/unsubscribe to KEPS at 
http://www.amsat.org/mailman/listinfo/keps
BID: ORB10014.M
TO ALL RADIO AMATEURS BT

